Hourly Data Report for July 22, 2021

WRIGLEY A
NORTHWEST TERRITORIES
Current Station Operator: NAVCAN

63°12'35.000" N
123°26'12.000" W
149.70 m
2204005
YWY

Download Data

Hourly Data (July 2021)
Hourly Data Report for July 22, 2021
TIME
LST
Temp Definition
°C
Dew Point Definition
°C
Rel Hum Definition
%
Precip. Amount Definition
mm

Wind Dir Definition
10's deg

Wind Spd Definition
km/h
Visibility Definition
km
Stn Press Definition
kPa
Hmdx Definition


Wind Chill Definition


Weather Definition


00:00 21.1 10.5 50 LegendMM 13 9 LegendMM 98.33     LegendNANA
01:00 19.2 11.2 60 LegendMM 14 10 LegendMM 98.30     LegendNANA
02:00 18.6 11.1 61 LegendMM 15 12 LegendMM 98.27     LegendNANA
03:00 18.2 11.3 64 LegendMM 14 8 LegendMM 98.27     LegendNANA
04:00 14.4 11.3 81 LegendMM 16 8 LegendMM 98.27     LegendNANA
05:00 13.2 11.0 86 LegendMM 25 1 LegendMM 98.27     LegendNANA
06:00 13.8 11.3 84 LegendMM 5 5 LegendMM 98.29     LegendNANA
07:00 15.1 11.3 78 LegendMM 32 4 LegendMM 98.28     LegendNANA
08:00 16.4 11.3 72 LegendMM 30 7 LegendMM 98.27     LegendNANA
09:00 18.1 12.1 68 LegendMM 31 9 LegendMM 98.25     LegendNANA
10:00 21.0 12.7 59 LegendMM 30 12 LegendMM 98.24     LegendNANA
11:00 21.8 13.4 59 LegendMM 31 16 LegendMM 98.20 25   LegendNANA
12:00 23.3 12.9 52 LegendMM 30 17 LegendMM 98.16 26   LegendNANA
13:00 24.6 12.9 48 LegendMM 30 20 LegendMM 98.14 27   LegendNANA
14:00 25.5 12.4 44 LegendMM 30 19 LegendMM 98.11 28   LegendNANA
15:00 26.4 11.6 39 LegendMM 3 16 LegendMM 98.10 28   LegendNANA
16:00 25.8 11.9 41 LegendMM 8 7 LegendMM 98.15 28   LegendNANA
17:00 19.5 15.2 76 LegendMM 8 16 LegendMM 98.16     LegendNANA
18:00 22.0 13.7 59 LegendMM 4 18 LegendMM 98.16 25   LegendNANA
19:00 24.0 14.3 54 LegendMM 31 5 LegendMM 98.13 28   LegendNANA
20:00 20.9 16.0 73 LegendMM 8 5 LegendMM 98.18 26   LegendNANA
21:00 21.1 16.0 73 LegendMM 3 7 LegendMM 98.22 26   LegendNANA
22:00 19.9 12.2 61 LegendMM 31 21 LegendMM 98.31     LegendNANA
23:00 15.8 14.8 93 LegendMM 1 8 LegendMM 98.28     LegendNANA

Notes on Data Quality.

Legend

  • E = Estimated
  • M = Missing
  • NA = Not Available*
  • [empty] = Indicates an unobserved value
Date modified: